map of LFSI home
Great Circle Mapper logo
LFSI - Airport
Location
City:  St-Dizier, France
Name:St-Dizier-Robinson AB
ICAO:LFSI

Details
Type:Airport (Aerodrome, Airfield)
Use:Military
Latitude:4838'01"N (48.633536)
Longitude:454'29"E (4.908189)
Elevation:458 ft (140 m)
Runways:1
Longest:7920 × 148 ft (2414 × 45 m)

Time
Time Zone:UTC+1 (DST+2)
Local Time:

Weather
METAR:LFSI 241230Z AUTO 06004KT 340V120 9999 NSC 22/10 Q1016
TAF:LFSI 240800Z 2409/2509 03003KT CAVOK
TEMPO 2411/2421 -SHRA SCT050TCU PROB40 2413/2421 3000 -TSRA BKN050CB

Related Locations
Nearby:
Farthest:CHT: 12091 mi / 19458 km
Waitangi [Tuuta], Chatham Islands, NZ

Find:

   beyond  
but within

Other Information
Maps:
NOTAMs:
Links:
Sources:

  
flag of France   

Sectional Chart

Flight Planning
at skyvector.com

Satellite Image

Google Maps Satellite View

 

Copyright © 2004-2014 Karl L. Swartz. All rights reserved.
The Great Circle Mapper name and logo are trademarks of the Great Circle Mapper.
All other trademarks mentioned herein belong to their respective owners.
Please see credits for attibutions and further copyright information.

  Follow gcmap on Facebook Follow gcmap on Twitter

hCard Microformat

Geo Microformat